Location: Bois de la Silve
(44.4667°N, 6.7833°E)
Time: 14:43:52
(UTC+00:00)

ISS - Visible Passes

Search period start: 24 July 2021 00:00
Search period end: 03 August 2021 00:00
Orbit: 419 x 421 km, 51.6° (Epoch: 24 July)

Date Brightness Start Highest point End Pass type
(mag) Time Alt. Az. Time Alt. Az. Time Alt. Az.
24 Jul -1.6 20:18:53 10° NW 20:21:44 24° N 20:24:35 10° ENE visible
24 Jul -3.2 21:55:40 10° NW 21:58:48 58° N 21:58:48 58° N visible
25 Jul -2.8 21:08:23 10° NW 21:11:39 42° NNE 21:12:58 28° ENE visible
25 Jul -1.0 22:45:19 10° WNW 22:45:54 14° WNW 22:45:54 14° WNW visible
26 Jul -2.3 20:21:06 10° NW 20:24:13 33° NNE 20:27:09 11° E visible
26 Jul -2.5 21:57:52 10° WNW 22:00:06 36° W 22:00:06 36° W visible
27 Jul -2.0 19:33:46 10° NW 19:36:44 28° NNE 19:39:43 10° ENE visible
27 Jul -3.9 21:10:29 10° WNW 21:13:53 89° SSW 21:14:20 65° ESE visible
28 Jul -3.4 20:23:10 10° NW 20:26:32 61° NNE 20:28:35 21° ESE visible
28 Jul -1.3 22:00:28 10° W 22:01:33 16° W 22:01:33 16° W visible
29 Jul -2.8 19:35:52 10° NW 19:39:07 43° NNE 19:42:22 10° E visible
29 Jul -2.7 21:12:47 10° WNW 21:15:51 34° SW 21:15:51 34° SW visible
30 Jul -3.4 20:25:18 10° WNW 20:28:37 55° SW 20:30:11 27° SSE visible
31 Jul -3.7 19:37:54 10° WNW 19:41:17 88° SW 19:44:34 11° ESE visible
31 Jul -1.3 21:15:59 10° WSW 21:17:32 13° SW 21:17:32 13° SW visible
01 Aug -1.8 20:27:51 10° W 20:30:28 21° SW 20:31:59 16° S visible
02 Aug -2.5 19:40:09 10° WNW 19:43:14 33° SW 19:46:18 10° SSE visible
